Weather History for Chipley, FL

Change the Weather History Date:

Friday, October 25, 2013

  Actual Average (KMAI) Record (KMAI)
Temperature  
Mean Temperature 63 °F 66 °F  
Max Temperature 69 °F 78 °F 89 °F (2010)
Min Temperature 57 °F 54 °F 36 °F (1999)
Degree Days  
Heating Degree Days 2    
Month to date heating degree days  
Since 1 July heating degree days  
Cooling Degree Days 0    
Month to date cooling degree days  
Year to date cooling degree days  
Growing Degree Days 13 (Base 50)    
Moisture  
Dew Point 44 °F    
Average Humidity 51    
Maximum Humidity 68    
Minimum Humidity 37    
Precipitation  
Precipitation 0.00 in 0.12 in 0.02 in (1997)
Month to date precipitation 2.71  
Year to date precipitation 44.84  
Sea Level Pressure  
Sea Level Pressure 30.32 in    
Wind  
Wind Speed 6 mph (NNE)    
Max Wind Speed 12 mph    
Max Gust Speed 21 mph    
Visibility 10 miles    
Events      
T = Trace of Precipitation, MM = Missing Value Source: NWS Daily Summary

Daily Weather History Graph

Daily Weather History Graph

Search for Another Location

Airport:

Trip Planner

Search our weather history database for the weather conditions in past years. The results will help you decide how hot, cold, wet, or windy it might be!

Date:

Astronomy

Oct. 25, 2013 Rise Set
Actual Time 6:52 AM CDT 6:00 PM CDT
Civil Twilight 6:27 AM CDT 6:24 PM CDT
Nautical Twilight 5:59 AM CDT 6:53 PM CDT
Astronomical Twilight 5:31 AM CDT 7:21 PM CDT
Moon 11:24 PM CDT (10/25) 12:25 PM CDT (10/25)
Length of Visible Light 11h 57m
Length of Day
11h 08m
Waning Gibbous, 62% of the Moon is Illuminated
Oct 25
Waning Gibbous
Oct 26
Last Quarter
Nov 3
New
Nov 9
First Quarter
Nov 17
Full

Hourly Weather History & Observations

Time (CDT) Temp. Dew Point Humidity Pressure Visibility Wind Dir Wind Speed Gust Speed Precip Events Conditions
12:15 AM 69.8 °F 55.4 °F 60% 30.23 in 10.0 mi Calm Calm - N/A   Clear
12:35 AM 69.8 °F 55.4 °F 60% 30.23 in 10.0 mi South 3.5 mph - N/A   Clear
12:55 AM 68.0 °F 55.4 °F 64% 30.23 in 10.0 mi South 3.5 mph - N/A   Clear
1:15 AM 68.0 °F 55.4 °F 64% 30.23 in 10.0 mi Calm Calm - N/A   Clear
1:35 AM 66.2 °F 55.4 °F 68% 30.24 in 10.0 mi Calm Calm - N/A   Clear
1:55 AM 66.2 °F 55.4 °F 68% 30.25 in 10.0 mi Calm Calm - N/A   Clear
2:15 AM 66.2 °F 55.4 °F 68% 30.25 in 10.0 mi Calm Calm - N/A   Clear
2:35 AM 66.2 °F 55.4 °F 68% 30.25 in 10.0 mi NNW 3.5 mph - N/A   Clear
2:55 AM 66.2 °F 53.6 °F 64% 30.25 in 10.0 mi NNE 4.6 mph - N/A   Clear
3:15 AM 66.2 °F 53.6 °F 64% 30.26 in 10.0 mi NNE 4.6 mph - N/A   Clear
3:35 AM 66.2 °F 50.0 °F 56% 30.26 in 10.0 mi NNE 3.5 mph - N/A   Clear
3:55 AM 64.4 °F 48.2 °F 56% 30.26 in 10.0 mi NNE 8.1 mph - N/A   Clear
4:15 AM 64.4 °F 48.2 °F 56% 30.27 in 10.0 mi NNE 9.2 mph - N/A   Clear
4:35 AM 62.6 °F 48.2 °F 59% 30.27 in 10.0 mi NNE 6.9 mph - N/A   Clear
4:55 AM 62.6 °F 48.2 °F 59% 30.28 in 10.0 mi NNE 8.1 mph - N/A   Clear
5:15 AM 62.6 °F 48.2 °F 59% 30.29 in 10.0 mi NNE 9.2 mph - N/A   Clear
5:35 AM 62.6 °F 50.0 °F 63% 30.30 in 10.0 mi NNE 9.2 mph - N/A   Clear
5:55 AM 60.8 °F 48.2 °F 63% 30.31 in 10.0 mi NNE 8.1 mph - N/A   Clear
6:15 AM 60.8 °F 48.2 °F 63% 30.32 in 10.0 mi NNE 10.4 mph - N/A   Clear
6:35 AM 60.8 °F 48.2 °F 63% 30.33 in 10.0 mi NE 10.4 mph 16.1 mph N/A   Clear
6:55 AM 59.0 °F 46.4 °F 63% 30.33 in 10.0 mi NNE 10.4 mph 16.1 mph N/A   Clear
7:15 AM 59.0 °F 46.4 °F 63% 30.34 in 10.0 mi NNE 11.5 mph 18.4 mph N/A   Clear
7:35 AM 57.2 °F 46.4 °F 67% 30.34 in 10.0 mi NE 10.4 mph 20.7 mph N/A   Clear
7:55 AM 57.2 °F 44.6 °F 63% 30.35 in 10.0 mi NNE 9.2 mph 18.4 mph N/A   Clear
8:15 AM 57.2 °F 44.6 °F 63% 30.36 in 10.0 mi NNE 9.2 mph 18.4 mph N/A   Clear
8:35 AM 57.2 °F 44.6 °F 63% 30.37 in 10.0 mi North 9.2 mph 18.4 mph N/A   Clear
8:55 AM 57.2 °F 44.6 °F 63% 30.38 in 10.0 mi NNE 9.2 mph 17.3 mph N/A   Clear
9:15 AM 57.2 °F 44.6 °F 63% 30.39 in 10.0 mi NNE 6.9 mph 16.1 mph N/A   Clear
9:35 AM 59.0 °F 44.6 °F 59% 30.39 in 10.0 mi North 11.5 mph 17.3 mph N/A   Clear
9:55 AM 59.0 °F 44.6 °F 59% 30.39 in 10.0 mi North 10.4 mph 17.3 mph N/A   Clear
10:15 AM 60.8 °F 44.6 °F 55% 30.39 in 10.0 mi NNE 10.4 mph - N/A   Clear
10:35 AM 60.8 °F 44.6 °F 55% 30.39 in 10.0 mi NNE 10.4 mph - N/A   Clear
10:55 AM 62.6 °F 42.8 °F 48% 30.39 in 10.0 mi NNE 10.4 mph 16.1 mph N/A   Clear
11:15 AM 62.6 °F 44.6 °F 52% 30.39 in 10.0 mi NE 4.6 mph - N/A   Clear
11:35 AM 62.6 °F 44.6 °F 52% 30.39 in 10.0 mi North 8.1 mph - N/A   Clear
11:55 AM 62.6 °F 44.6 °F 52% 30.39 in 10.0 mi North 8.1 mph - N/A   Clear
12:15 PM 64.4 °F 42.8 °F 45% 30.38 in 10.0 mi NNE 8.1 mph - N/A   Clear
12:35 PM 64.4 °F 42.8 °F 45% 30.37 in 10.0 mi North 6.9 mph - N/A   Clear
12:55 PM 64.4 °F 42.8 °F 45% 30.36 in 10.0 mi North 8.1 mph - N/A   Clear
1:15 PM 64.4 °F 42.8 °F 45% 30.35 in 10.0 mi North 6.9 mph - N/A   Clear
1:35 PM 64.4 °F 41.0 °F 42% 30.35 in 10.0 mi North 8.1 mph - N/A   Clear
1:55 PM 66.2 °F 39.2 °F 37% 30.34 in 10.0 mi NNE 8.1 mph - N/A   Clear
2:15 PM 66.2 °F 39.2 °F 37% 30.33 in 10.0 mi North 10.4 mph - N/A   Clear
2:35 PM 66.2 °F 39.2 °F 37% 30.32 in 10.0 mi NNE 6.9 mph - N/A   Clear
2:55 PM 66.2 °F 39.2 °F 37% 30.32 in 10.0 mi North 8.1 mph - N/A   Clear
3:15 PM 66.2 °F 41.0 °F 40% 30.31 in 10.0 mi North 8.1 mph - N/A   Clear
3:35 PM 66.2 °F 39.2 °F 37% 30.32 in 10.0 mi North 8.1 mph - N/A   Clear
3:55 PM 66.2 °F 41.0 °F 40% 30.32 in 10.0 mi NNE 9.2 mph - N/A   Clear
4:15 PM 68.0 °F 41.0 °F 37% 30.31 in 10.0 mi North 9.2 mph - N/A   Clear
4:35 PM 68.0 °F 41.0 °F 37% 30.31 in 10.0 mi NNE 6.9 mph - N/A   Clear
4:55 PM 68.0 °F 42.8 °F 40% 30.30 in 10.0 mi NNE 6.9 mph - N/A   Clear
5:15 PM 66.2 °F 41.0 °F 40% 30.30 in 10.0 mi NNE 8.1 mph - N/A   Clear
5:35 PM 66.2 °F 41.0 °F 40% 30.29 in 10.0 mi North 8.1 mph - N/A   Clear
5:55 PM 66.2 °F 41.0 °F 40% 30.29 in 10.0 mi North 5.8 mph - N/A   Clear
6:15 PM 66.2 °F 39.2 °F 37% 30.29 in 10.0 mi NNW 4.6 mph - N/A   Clear
6:35 PM 66.2 °F 39.2 °F 37% 30.30 in 10.0 mi North 5.8 mph - N/A   Clear
6:55 PM 66.2 °F 39.2 °F 37% 30.30 in 10.0 mi NNW 3.5 mph - N/A   Clear
7:15 PM 66.2 °F 39.2 °F 37% 30.31 in 10.0 mi North 5.8 mph - N/A   Clear
7:35 PM 64.4 °F 39.2 °F 40% 30.31 in 10.0 mi North 4.6 mph - N/A   Clear
7:55 PM 64.4 °F 39.2 °F 40% 30.32 in 10.0 mi NNE 3.5 mph - N/A   Clear
8:15 PM 64.4 °F 39.2 °F 40% 30.32 in 10.0 mi NNE 4.6 mph - N/A   Clear
8:35 PM 64.4 °F 39.2 °F 40% 30.33 in 10.0 mi NNE 6.9 mph - N/A   Clear
8:55 PM 62.6 °F 39.2 °F 42% 30.33 in 10.0 mi NNE 8.1 mph - N/A   Clear
9:15 PM 62.6 °F 37.4 °F 39% 30.34 in 10.0 mi NE 5.8 mph - N/A   Clear
9:35 PM 62.6 °F 39.2 °F 42% 30.34 in 10.0 mi NE 6.9 mph - N/A   Clear
9:55 PM 62.6 °F 39.2 °F 42% 30.34 in 10.0 mi NNE 6.9 mph - N/A   Clear
10:15 PM 60.8 °F 39.2 °F 45% 30.35 in 10.0 mi NE 5.8 mph - N/A   Clear
10:35 PM 60.8 °F 39.2 °F 45% 30.34 in 10.0 mi NE 6.9 mph - N/A   Clear
10:55 PM 60.8 °F 39.2 °F 45% 30.34 in 10.0 mi NE 5.8 mph - N/A   Clear
11:15 PM 60.8 °F 39.2 °F 45% 30.33 in 10.0 mi NE 9.2 mph - N/A   Clear
11:35 PM 59.0 °F 39.2 °F 48% 30.32 in 10.0 mi NE 6.9 mph - N/A   Clear
11:55 PM 59.0 °F 37.4 °F 45% 30.32 in 10.0 mi NE 8.1 mph - N/A   Clear